Regional Weather Roundup
Issued by NWS

Home | Current Version | Previous Version | Text Only | Print | Product List | Glossary Off
Versions: 1 2 3 4 5 6 7 8 9 10 11 12 13 14 15 16 17 18 19 20 21 22 23 24 25 26 27 28 29 30 31 32 33 34 35 36 37 38 39 40 41 42 43 44 45 46 47 48 49 50

259
ASUS43 KLOT 221104
RWRIL

ILLINOIS REGIONAL WEATHER ROUNDUP
NATIONAL WEATHER SERVICE CHICAGO/ROMEOVILLE IL
600 AM CDT FRI SEP 22 2017

NOTE: "FAIR" INDICATES FEW OR NO CLOUDS BELOW 12,000 FEET WITH NO
SIGNIFICANT WEATHER AND/OR OBSTRUCTIONS TO VISIBILITY.

* THESE STATIONS ARE NOT UNDER NWS QUALITY CONTROL. THEY ALSO MAY NOT
  REPORT WEATHER SUCH AS PRECIPITATION OR FOG.

ILZ001-002-007-009-015-016-024-221200-
NORTHWEST ILLINOIS

CITY           SKY/WX    TMP DP  RH WIND       PRES   REMARKS
MOLINE         CLEAR     72  67  84 VRB3      30.01R
STERLING*      CLEAR     72  67  84 VRB3      30.03S
SAVANNA*       CLEAR     68  66  94 S7        30.02R
$$

ILZ003-004-008-010-011-017-018-221200-
NORTH CENTRAL ILLINOIS

CITY           SKY/WX    TMP DP  RH WIND       PRES   REMARKS
ROCKFORD       CLEAR     69  66  90 S5        30.05R
FREEPORT*      CLEAR     69  66  91 S7        30.05R
ROCHELLE*      CLEAR     67  66  96 SE6       30.06R
DE KALB*       CLEAR     67  66  97 S6        30.07S FOG
PERU*          CLEAR     70  65  85 S6        30.06R
$$

ILZ005-006-012>014-019>023-221200-
NORTHEAST ILLINOIS

CITY           SKY/WX    TMP DP  RH WIND       PRES   REMARKS
CHICAGO-OHARE  PTCLDY    74  67  78 CALM      30.05S
CHICAGO-MIDWAY CLOUDY    76  68  76 SW6       30.05S
AURORA         CLEAR     69  68  96 CALM      30.07R FOG
LANSING*       CLEAR     69  67  96 CALM      30.07R
JOLIET*        CLEAR     68  68  99 CALM      30.06S FOG
WAUKEGAN       CLEAR     68  67  96 CALM      30.05S FOG
DUPAGE AIRPORT CLEAR     68  68 100 S3        30.06R
KANKAKEE*      CLEAR     65  64  96 CALM      30.08R
WHEELING       CLEAR     73  69  87 CALM      30.06S
MORRIS*        CLEAR     69  67  93 CALM      30.06R
NORTHERLY ISL    N/A     78  65  63 S3          N/A  HX  80
$$

LMZ740>746-221200-
SOUTHERN LAKE MICHIGAN

STATION/POSITION SKY/WX   TEMP    WIND        PRES    VSBY  WAVE
                          AIR SEA DIR/SP/G                  HT/PER
                          (F)     (DEG/KT/KT) (MB)    (MI)  (FT/S)
SOUTHERN BUOY              72 69  190/  8/  8 1017.4          1
WILMETTE HARBOR            75 71  200/  6/  6   N/A           1
HARRISON CRIB              79     200/  8/  8   N/A
BURNHAM HARBOR             77                   N/A
CALUMET HARBOR             75     210/  4/  5 1017.0S
BURNS HARBOR               74     180/  7/ 10 1018.3R
MICHIGAN CITY              75     150/  8/ 10   N/A
MICHIGAN CITY 6N           72 70  190/  2/  4   N/A           0
ST. JOSEPH                 72 70  170/  6/  6 1017.9R         1
$$

ILZ025>027-034>036-040-047-049-050-058-095>099-221200-
WEST-CENTRAL ILLINOIS

CITY           SKY/WX    TMP DP  RH WIND       PRES   REMARKS
QUINCY         CLEAR     73  68  84 S5        30.02S
GALESBURG*     CLEAR     69  66  90 SE5       30.04S
MACOMB*        CLEAR     66  65  97 SE3       30.05S FOG
$$

ILZ028>032-037-038-041>044-048-051>054-059>061-221200-
CENTRAL ILLINOIS

CITY           SKY/WX    TMP DP  RH WIND       PRES   REMARKS
BLOOMINGTON    CLEAR     67  64  90 S8        30.09R
DECATUR        CLEAR     70  65  84 S3        30.07R
PEORIA         CLEAR     71  68  90 CALM      30.05R
LACON*         CLEAR     70  67  91 SE3       30.04R FOG
LINCOLN*       CLEAR     65  65 100 CALM      30.06R
SPRINGFIELD    CLEAR     73  68  84 S5        30.06R
TAYLORVILLE    NOT AVBL
$$

ILZ033-039-045-046-055>057-062-063-221200-
EAST-CENTRAL ILLINOIS

CITY           SKY/WX    TMP DP  RH WIND       PRES   REMARKS
CHAMPAIGN      CLEAR     67  64  90 SE5       30.08R
MATTOON        CLEAR     72  69  90 S6        30.07R
PARIS*         CLEAR     67  66  97 SE3       30.10R
$$

ILZ079-100>102-221200-
SOUTHWEST ILLINOIS

CITY           SKY/WX    TMP DP  RH WIND       PRES   REMARKS
ALTON          CLEAR     66  66 100 CALM      30.06R FOG
CAHOKIA*       CLEAR     69  66  90 SE3       30.05R FOG
SPARTA*        CLEAR     69  68  98 CALM      30.06S
$$

ILZ064>066-069>071-074>076-080>082-084>086-088>090-092>094-221200-
SOUTH-CENTRAL ILLINOIS

CITY           SKY/WX    TMP DP  RH WIND       PRES   REMARKS
CARBONDALE     FOG       65  65 100 CALM      30.05S VSB 1/2
CAIRO*         FOG       65  65 100 CALM      30.05S VSB 3/4
EFFINGHAM*     CLEAR     66  66 100 CALM      30.09R
MARION         CLEAR     72  70  94 CALM      30.07R
CENTRALIA*     CLEAR     65  65  99 CALM      30.06R
SALEM*         CLEAR     68  66  93 CALM      30.07S FOG
METROPOLIS*    CLEAR     66  65  98 CALM      30.07R FOG
$$

ILZ067-068-072-073-078-083-087-091-221200-
SOUTHEAST ILLINOIS

CITY           SKY/WX    TMP DP  RH WIND       PRES   REMARKS
LAWRENCEVILLE  PTCLDY    69  68  96 CALM      30.08R FOG
FLORA*         PTCLDY    67  66  96 CALM      30.07S FOG
FAIRFIELD*     CLEAR     66  66 100 CALM      30.06S FOG
HARRISBURG*    CLEAR     66  66 100 CALM      30.07S FOG
ROBINSON*      PTCLDY    65  65 100 CALM      30.09S FOG
CARMI*         PTCLDY    65  65 100 CALM      30.07R FOG
$$

ABBREVIATIONS USED IN REMARKS
   TC - TEMPERATURE IN CELSIUS
  WCI - WIND CHILL INDEX
   HX - HEAT INDEX
  VSB - VISIBILITY
$$





USA.gov is the U.S. government's official web portal to all federal, state and local government web resources and services.